Content
SEND FEEDBACK

Daily
Averages
Monthly
Summary
Czech Republic

VRCHLABI, CZECH REPUBLIC


Home > Europe > Czech Republic
Elevation: 1624 feet     Latitude: 50 36N     Longitude: 015 36E

WEATHER
 
SELECT A DAY
Number of Records: 293,327;   Date Range: 7/1/96 - 4/21/13
 
SHARE

PRINT THIS DATA

[ ← Previous Day ]
WEATHER ALMANAC - FEBRUARY 13, 2013
[ Next Day → ]
[ °C ]   °F
Weather ElementAverageHighLow
Temperature27.1 °F30.2 °F (1:30 pm)26 °F (7:00 am)
Dewpoint24.4 °F26.6 °F (12:30 am)23 °F (1:00 pm)
Humidity89.2 %100 % (12:30 am)71 % (1:00 pm)
Barometer30.10 in30.32 in (7:00 pm)29.89 in (12:30 am)
Wind Speed6.7 mph10.4 mph (11:30 am)
Weather ElementAverage
Visibility3.9 mi
Wind DirectionNNW (321.5 °)

Weather ElementTotal
Precipitation---
Heating Degree Days36.9 (Base 65)
Averaged from 55 records on February 13, 2013
WEATHER CONDITIONS BREAKOUT
WIND DIRECTION BREAKOUT
WEATHER BY HOUR - FEBRUARY 13, 2013
[ °C ]   °F
Local TimeTemperatureDewpointHumidityBarometerVisibilityWind DirectionWind SpeedGust SpeedPrecipitationEventsConditions
12:30 AM26.6 °F26.6 °F100 %29.89 in2.5 miNW (310°)5.8 mphOvercast
1:00 AM27.0 °F26.0 °F92 %29.99 in3.0 miNW (310°)4.5 mphSnowLight Snow
1:00 AM26.6 °F26.6 °F100 %29.92 in2.8 miWNW (300°)4.6 mphOvercast
1:30 AM26.6 °F24.8 °F93 %29.92 in3.1 miWNW (290°)4.6 mphOvercast
2:00 AM26.6 °F24.8 °F93 %29.92 in3.1 miNW (310°)5.8 mphOvercast
2:30 AM26.6 °F24.8 °F93 %29.92 in3.1 miWNW (290°)4.6 mphOvercast
3:00 AM26.6 °F24.8 °F93 %29.92 in3.1 miWNW (290°)3.5 mphOvercast
3:30 AM26.6 °F24.8 °F93 %29.95 in3.7 miWNW (290°)3.5 mphOvercast
4:00 AM26.6 °F24.8 °F93 %29.95 in3.7 miWNW (300°)4.6 mphOvercast
4:30 AM26.6 °F24.8 °F93 %29.95 in3.7 miNW (310°)5.8 mphOvercast
5:00 AM26.6 °F24.8 °F93 %29.98 in3.7 miWNW (290°)5.8 mphOvercast
5:30 AM26.6 °F24.8 °F93 %29.98 in3.7 miWNW (300°)5.8 mphSnowLight Snow
6:00 AM26.6 °F24.8 °F93 %29.98 in3.7 miWNW (300°)4.6 mphSnowLight Snow
6:30 AM26.6 °F24.8 °F93 %30.01 in3.7 miNW (310°)6.9 mphSnowLight Snow
6:42 AM26.6 °F24.8 °F93 %30.01 in3.7 miNW (310°)8.1 mphSnowLight Snow
7:00 AM26.0 °F24.0 °F87 %30.09 in4.0 miNW (320°)6.7 mphSnowLight Snow
7:00 AM26.6 °F24.8 °F93 %30.01 in3.7 miNW (310°)6.9 mphSnowLight Snow
7:11 AM26.6 °F24.8 °F93 %30.01 in2.8 miNW (310°)5.8 mphSnowLight Snow
7:30 AM26.6 °F24.8 °F93 %30.04 in2.5 miWNW (300°)4.6 mphSnowLight Snow
8:00 AM26.6 °F24.8 °F93 %30.04 in2.2 miNW (320°)5.8 mphSnowLight Snow
8:30 AM26.6 °F24.8 °F93 %30.04 in1.6 miNW (320°)5.8 mphSnowSnow
8:41 AM26.6 °F24.8 °F93 %30.06 in1.2 miNW (320°)5.8 mphSnowSnow
9:00 AM26.6 °F24.8 °F93 %30.06 in1.1 miNW (310°)6.9 mphSnowSnow
9:13 AM26.6 °F24.8 °F93 %30.06 in1.6 miNW (310°)6.9 mphSnowSnow
9:30 AM26.6 °F24.8 °F93 %30.06 in1.9 miNW (310°)6.9 mphSnowLight Snow
10:00 AM26.6 °F24.8 °F93 %30.09 in2.8 miNW (310°)8.1 mphSnowLight Snow
10:30 AM26.6 °F24.8 °F93 %30.09 in3.1 miNW (310°)8.1 mphSnowLight Snow
11:00 AM28.4 °F24.8 °F86 %30.09 in3.7 miNW (320°)9.2 mphOvercast
11:30 AM28.4 °F24.8 °F86 %30.12 in5.0 miNW (320°)10.4 mphOvercast
12:00 PM28.4 °F24.8 °F86 %30.12 in4.3 miNNW (330°)9.2 mphMostly Cloudy
12:30 PM28.4 °F24.8 °F86 %30.12 in5.0 miNW (320°)8.1 mphMostly Cloudy
1:00 PM29.0 °F23.0 °F71 %30.21 in6.0 miNNW (330°)8.9 mphMist
1:00 PM28.4 °F24.8 °F86 %30.12 in5.6 miNNW (330°)9.2 mphMostly Cloudy
1:30 PM30.2 °F24.8 °F80 %30.15 in5.6 miNNW (330°)8.1 mphMostly Cloudy
2:00 PM28.4 °F23.0 °F80 %30.15 in5.0 miNNW (330°)8.1 mphOvercast
2:30 PM28.4 °F24.8 °F86 %30.15 in5.0 miNNW (330°)8.1 mphOvercast
3:00 PM28.4 °F23.0 °F80 %30.15 in5.0 miNNW (330°)8.1 mphOvercast
3:30 PM28.4 °F24.8 °F86 %30.15 in4.3 miNW (320°)8.1 mphOvercast
4:00 PM28.4 °F24.8 °F86 %30.18 in4.3 miNNW (330°)6.9 mphOvercast
4:30 PM28.4 °F24.8 °F86 %30.18 in4.3 miNorth (350°)6.9 mphOvercast
5:00 PM28.4 °F24.8 °F86 %30.18 in4.3 miNorth (350°)6.9 mphMostly Cloudy
5:30 PM28.4 °F24.8 °F86 %30.21 in3.7 miNNW (340°)8.1 mphOvercast
6:00 PM26.6 °F23.0 °F86 %30.21 in5.0 miNNW (330°)8.1 mphOvercast
6:30 PM26.6 °F23.0 °F86 %30.21 in5.0 miNorth (350°)8.1 mphOvercast
7:00 PM27.0 °F23.0 °F80 %30.32 in5.0 miNorth (350°)6.7 mphMist
7:00 PM26.6 °F23.0 °F86 %30.24 in5.0 miNorth (360°)6.9 mphOvercast
7:30 PM26.6 °F23.0 °F86 %30.24 in5.0 miNorth (360°)6.9 mphOvercast
8:00 PM26.6 °F23.0 °F86 %30.24 in5.0 miNNW (340°)6.9 mphOvercast
8:30 PM26.6 °F23.0 °F86 %30.24 in5.0 miNNW (340°)5.8 mphOvercast
9:00 PM26.6 °F23.0 °F86 %30.24 in5.0 miNNW (340°)5.8 mphOvercast
9:30 PM26.6 °F24.8 °F93 %30.24 in4.3 miNNW (330°)5.8 mphOvercast
10:00 PM26.6 °F24.8 °F93 %30.24 in4.3 miNNW (340°)5.8 mphOvercast
10:30 PM26.6 °F24.8 °F93 %30.27 in4.3 miNNW (340°)8.1 mphOvercast
11:00 PM26.6 °F23.0 °F86 %30.24 in5.0 miNNW (340°)9.2 mphOvercast
11:30 PM26.6 °F23.0 °F86 %30.27 in5.0 miNNW (340°)5.8 mphOvercast
Hourly data recorded from LKLB, located miles away from Vrchlabi, Czech Republic







STORIES FROM OUR PARTNERS